This demonstration page uses our WeatherBlox Daily Observations layout. Learn more.

Hourly Observations for December 28, 2016

Temp ( °F °C ) Dew Point ( °F °C ) Humidity (%) Winds ( mph kmh ) Pressure ( in mb ) Visibility ( mi km ) Precip ( " mm )
12:54 am 00:54 Clear 33 0.6 25 -3.9 72 72 SSW 7 11 29.98 1015 10 16.0934 0 0
1:54 am 01:54 Clear 28 -2.2 24 -4.4 85 85 S 8 13 29.95 1014 10 16.0934 0 0
2:54 am 02:54 Clear 32 0 25 -3.9 75 75 S 7 11 29.93 1014 10 16.0934 0 0
3:54 am 03:54 Clear 34 1.1 26 -3.3 73 73 S 3 6 29.91 1013 10 16.0934 0 0
4:54 am 04:54 Clear 33 0.6 26 -3.3 75 75 NW 5 7 29.92 1013 10 16.0934 0 0
5:54 am 05:54 Clear 31 -0.6 25 -3.9 79 79 SW 6 9 29.93 1014 10 16.0934 0 0
6:54 am 06:54 Clear 33 0.6 26 -3.3 75 75 WSW 7 11 29.93 1014 10 16.0934 0 0
7:54 am 07:54 Sunny 31 -0.6 25 -3.9 79 79 WNW 3 6 29.96 1014 10 16.0934 0 0
8:54 am 08:54 Sunny 33 0.6 27 -2.8 78 78 NW 9 15 29.98 1015 10 16.0934 0 0
9:54 am 09:54 Sunny 36 2.2 29 -1.7 76 76 N 3 6 29.99 1016 10 16.0934 0 0
10:54 am 10:54 Sunny 44 6.7 27 -2.8 51 51 NNW 8 13 30 1016 10 16.0934 0 0
11:54 am 11:54 Sunny 47 8.3 22 -5.6 37 37 NNW 13 20 29.98 1015 10 16.0934 0 0
12:54 pm 12:54 Sunny 47 8.3 23 -5 39 39 NNW 10 17 29.96 1014 10 16.0934 0 0
1:54 pm 13:54 Sunny 47 8.3 22 -5.6 37 37 WNW 13 20 29.97 1015 10 16.0934 0 0
2:54 pm 14:54 Sunny 49 9.4 25 -3.9 39 39 W 7 11 29.97 1015 10 16.0934 0 0
3:54 pm 15:54 Sunny 49 9.4 25 -3.9 39 39 W 8 13 29.99 1016 10 16.0934 0 0
4:54 pm 16:54 Sunny 45 7.2 27 -2.8 49 49 W 6 9 30.03 1017 10 16.0934 0 0
5:54 pm 17:54 Clear 39 3.9 28 -2.2 65 65 WSW 7 11 30.07 1018 10 16.0934 0 0
6:54 pm 18:54 Clear 40 4.4 19 -7.2 43 43 WNW 12 19 30.09 1019 10 16.0934 0 0
7:54 pm 19:54 Clear 39 3.9 17 -8.3 41 41 W 9 15 30.11 1020 10 16.0934 0 0
8:54 pm 20:54 Clear 40 4.4 18 -7.8 41 41 NW 17 28 30.14 1021 10 16.0934 0 0
9:54 pm 21:54 Clear 40 4.4 19 -7.2 43 43 NW 21 33 30.16 1021 10 16.0934 0 0
10:54 pm 22:54 Clear 38 3.3 18 -7.8 44 44 WNW 15 24 30.18 1022 10 16.0934 0 0
11:54 pm 23:54 Clear 37 2.8 19 -7.2 48 48 W 15 24 30.19 1022 10 16.0934 0 0

Powered by AerisWeather